Regional Weather Roundup
Issued by NWS Northern Indiana

Home | Current Version | Previous Version | Text Only | Print | Product List | Glossary On
Versions: 1 2 3 4 5 6 7 8 9 10 11 12 13 14 15 16 17 18 19 20 21 22 23 24 25 26 27 28 29 30 31 32 33 34 35 36 37 38 39 40 41 42 43 44 45 46 47 48 49 50
000
ASUS43 KIWX 170610
RWRIWX

KIWX WEATHER ROUNDUP
NATIONAL WEATHER SERVICE NORTHERN INDIANA
200 AM EDT THU AUG 17 2017

NOTE: "FAIR" INDICATES FEW OR NO CLOUDS BELOW 12,000 FEET WITH NO
SIGNIFICANT WEATHER AND/OR OBSTRUCTIONS TO VISIBILITY.

* THESE STATIONS ARE NOT UNDER NWS QUALITY CONTROL. THEY ALSO MAY NOT
  REPORT WEATHER SUCH AS PRECIPITATION OR FOG.

INZ001>027-170700-
NORTHERN INDIANA

CITY           SKY/WX    TMP DP  RH WIND       PRES   REMARKS
GARY*          CLOUDY    80  72  77 S12G18    29.84F
VALPARAISO     CLOUDY    77  74  90 S10       29.87F
6HR MIN TEMP:  77; 6HR MAX TEMP:  83; 6HR PCP: TRACE;

MICHIGAN CITY* MOCLDY    77  70  78 S12       29.85F
LAPORTE*       CLOUDY    76  72  86 S7        29.87F
6HR MIN TEMP:  75; 6HR MAX TEMP:  80;

KNOX*          PTCLDY    77  72  83 S9        29.87F
SOUTH BEND     NOT AVBL
MONTICELLO*    CLOUDY    77  72  85 S12       29.88F
6HR MIN TEMP:  77; 6HR MAX TEMP:  83;

LOGANSPORT*    CLOUDY    73  70  88 SW6       29.91F
ROCHESTER*     CLOUDY    77  73  88 S6        29.90F
WARSAW*        CLOUDY    77  70  78 S5        29.90F
AUBURN*        CLOUDY    73  66  78 E3        29.93S
FORT WAYNE     CLOUDY    75  69  81 S6        29.92F
6HR MIN TEMP:  74; 6HR MAX TEMP:  83;

HUNTINGTON*    CLOUDY    75  71  86 S5        29.92S
6HR MIN TEMP:  75; 6HR MAX TEMP:  82;

PERU/GRISSOM   CLOUDY    76  73  88 S6        29.89F
6HR MIN TEMP:  76; 6HR MAX TEMP:  82;


$$
INZ028>050-170700-
CENTRAL INDIANA

CITY           SKY/WX    TMP DP  RH WIND       PRES   REMARKS
KOKOMO*        CLOUDY    75  72  90 S6        29.92F
6HR MIN TEMP:  75; 6HR MAX TEMP:  80;

MUNCIE*        PTCLDY    79  71  76 S6        29.93F
6HR MIN TEMP:  79; 6HR MAX TEMP:  85;

INDIANAPOLIS   CLOUDY    78  71  79 S9        29.92R
6HR MIN TEMP:  77; 6HR MAX TEMP:  81;


$$
MIZ043>046-050>051-056>058-064>065-071>073-077>080-170700-
SOUTHWEST LOWER MICHIGAN

CITY           SKY/WX    TMP DP  RH WIND       PRES   REMARKS
COLDWATER*     CLOUDY    72  62  71 SE9       29.92F
6HR MIN TEMP:  72; 6HR MAX TEMP:  81;

HILLSDALE*     CLOUDY    70  59  68 E8        29.94F
STURGIS*       MOCLDY    73  66  79 SE10      29.90F
6HR MIN TEMP:  73; 6HR MAX TEMP:  82;

THREE RIVERS*  CLOUDY    77  67  70 SE6       29.90F
6HR MIN TEMP:  77; 6HR MAX TEMP:  84;


$$
OHZ001>008-015>018-024>025-170700-
NORTHWEST OHIO

CITY           SKY/WX    TMP DP  RH WIND       PRES   REMARKS
WAUSEON*       MOCLDY    70  63  78 SE6       29.94F
DEFIANCE       PTCLDY    72  65  78 SE7       29.93F
6HR MIN TEMP:  72; 6HR MAX TEMP:  82;

FINDLAY        MOCLDY    73  67  81 SE8       29.95F
6HR MIN TEMP:  73; 6HR MAX TEMP:  83;

TOLEDO EXPRESS MOCLDY    70  61  73 SE5       29.94F
6HR MIN TEMP:  70; 6HR MAX TEMP:  78;

TOLEDO METCALF PTCLDY    70  61  73 E8        29.96F
6HR MIN TEMP:  70; 6HR MAX TEMP:  77;

LIMA           CLOUDY    73  70  90 S6        29.96F
6HR MIN TEMP:  71; 6HR MAX TEMP:  79;


$$
AND FOR LAKE MICHIGAN COASTAL AND OPEN LAKE BUOY OBSERVATIONS

STATION/POSITION TEMP    WIND        PRES    VSBY  WAVE
                 AIR SEA DIR/SP/G                  HT/PER
                 (F)     (DEG/KT/KT) (MB)    (MI)  (FT/S)
CALUMET HARBOR    78     170/ 10/ 19 1009.4F
MICHIGAN CITY     78     170/ 12/ 17   N/A
BURNS HARBOR      79     180/ 13/ 19 1010.8F
SAINT JOSEPH      78     180/  3/  9 1011.5
SOUTH LAKE BUOY   74 72  230/ 14/ 23 1010.0R         1/ 3
4 MI NW BRIDGMAN  78 74  200/ 14/ 17 1009.9          1/ 2
MICHIGAN CITY     78 75  190/ 12/ 17   N/A           1/ 2

$$
&&




USA.gov is the U.S. government's official web portal to all federal, state and local government web resources and services.